Dewpoint
31 31 32 32 32 31 31 31 31 31 31 31 31 31 31 32 32 33 33 32 31 30 30 30 30 30 31 32 32 33 33 33 34 34 35 35 36 36 36 36 36 37 37 37 37 37 37 37 37 38 38 38 39 40 40 41 42 42 43 43 44 44 44 45 45 45 46 46 47 47 47 48 49 50 51 51 51 51 51 51 51 51 51 51 51 51
29 29 29 30 31 31 30 31 31 31 31 30 30 29 29 29 29 30 31 30 30 29 29 29 28 28 29 29 31 32 33 33 34 34 35 35 36 36 36 36 36 36 36 36 37 37 37 37 37 37 38 38 38 38 39 39 40 41 41 42 42 43 43 43 44 44 44 44 44 45 45 46 47 48 49 50 51 51 51 50 50 50 50 51 51 51
27 28 28 29 30 29 29 29 29 29 29 29 29 29 29 29 28 28 28 29 29 30 29 28 27 27 27 28 30 32 32 33 33 34 34 35 35 35 35 35 35 35 36 36 36 36 36 36 36 37 37 37 37 38 38 38 39 39 40 40 41 41 42 42 42 42 43 43 43 43 44 45 46 47 48 49 50 50 50 49 49 49 49 50 51 51
28 27 26 28 29 29 28 28 28 29 29 29 29 29 29 28 28 27 27 28 29 29 29 29 27 27 26 28 29 31 32 33 33 34 34 34 34 35 35 35 35 35 35 35 35 35 35 35 36 36 36 36 36 37 37 37 38 38 38 39 39 40 40 41 41 42 42 42 43 44 44 45 46 47 47 48 48 48 48 47 47 48 48 49 50 51
28 27 26 27 27 27 27 27 27 28 29 28 28 28 28 28 27 27 27 27 27 28 28 28 27 27 26 27 29 30 32 33 33 33 34 34 34 34 34 34 34 34 34 34 34 34 34 35 35 35 35 35 35 35 35 36 36 36 37 37 38 38 39 40 40 41 41 42 42 43 44 45 45 46 46 46 46 46 46 46 46 46 46 47 48 49
28 27 27 27 26 26 25 26 26 27 27 27 27 27 27 28 28 27 27 26 26 27 27 27 27 27 27 27 29 30 32 32 33 33 33 33 33 33 33 34 34 34 34 34 34 34 34 34 34 34 34 35 35 35 35 35 35 35 35 35 36 37 37 38 38 39 39 40 40 41 42 42 43 43 43 43 43 43 43 43 44 44 44 45 46 47
27 27 27 27 26 26 25 25 25 25 25 25 25 26 26 27 28 28 28 28 27 27 27 27 27 27 28 28 29 30 31 31 32 32 32 32 33 33 33 33 33 33 33 34 33 33 33 33 33 33 34 34 34 34 35 35 34 34 34 35 35 35 36 36 37 37 38 38 38 39 39 40 40 41 41 41 42 42 42 42 42 42 42 42 43 44
26 26 26 26 25 25 24 24 25 25 26 25 25 25 25 25 26 27 29 29 29 28 26 26 26 26 27 27 28 29 29 29 29 29 30 30 31 32 32 33 33 33 33 33 33 33 33 33 33 33 33 33 34 34 34 35 35 35 35 35 35 35 35 35 36 36 36 36 37 37 38 38 38 39 39 39 40 40 40 41 41 42 42 42 42 42
26 25 25 26 26 25 24 24 25 26 27 26 26 25 25 24 25 25 27 27 27 27 26 25 25 25 25 27 27 27 28 28 28 28 29 29 29 30 31 32 33 33 33 33 33 33 33 33 33 33 33 33 33 33 34 34 34 35 35 35 35 35 35 35 35 35 35 36 36 36 36 37 37 38 38 38 38 38 39 39 40 41 41 41 41 42
26 25 25 25 26 25 24 24 25 26 28 27 27 26 25 24 24 24 24 24 25 26 25 24 24 24 24 26 27 27 27 28 28 29 29 29 29 30 31 31 31 32 33 33 33 33 33 33 33 33 33 33 33 33 33 34 34 34 34 35 35 35 35 35 35 36 36 36 36 36 36 37 37 37 37 37 38 38 38 38 39 39 40 40 41 41
26 26 25 25 25 25 25 25 25 26 28 27 27 26 25 24 24 24 23 23 24 24 24 24 24 24 24 24 25 26 26 26 27 28 29 30 30 31 31 30 31 31 32 32 32 32 32 32 32 33 33 33 33 33 33 33 33 34 34 34 34 35 35 35 36 36 36 36 36 36 36 37 37 37 37 37 37 37 38 38 38 38 39 39 40 41
26 26 25 25 24 24 24 24 25 26 27 25 24 24 23 24 24 24 23 23 23 23 23 24 24 24 24 24 24 24 25 24 25 25 27 28 29 29 29 29 29 29 30 30 30 31 31 31 31 32 32 32 32 32 32 33 33 33 34 34 34 35 35 35 35 36 36 35 35 35 35 36 36 36 37 37 37 37 37 38 38 38 38 39 39 40
25 25 24 24 24 23 23 23 24 24 24 23 22 21 22 23 24 24 24 23 23 23 23 23 24 24 25 25 24 24 24 24 24 24 25 26 26 27 26 26 27 27 28 28 28 29 30 30 31 31 31 31 31 32 32 32 33 33 33 34 34 35 35 35 35 35 35 34 34 34 34 35 35 36 36 36 37 37 37 37 38 38 38 38 39 39
24 24 23 23 22 22 22 22 21 21 21 21 21 22 23 23 24 24 23 23 23 24 24 23 24 24 24 24 25 24 24 24 24 24 24 25 25 26 26 25 26 26 26 26 27 27 29 29 29 29 30 31 31 31 32 32 33 33 33 33 34 34 34 34 34 34 34 33 33 34 34 34 34 35 35 36 36 36 37 37 37 37 38 38 38 38
23 23 22 21 21 21 21 21 20 20 20 21 22 22 23 23 23 23 23 22 23 24 24 24 23 23 24 24 24 25 25 24 24 24 24 24 25 26 26 25 25 25 26 25 26 27 28 28 28 28 29 29 30 30 31 31 32 33 33 33 33 33 33 33 33 33 33 33 33 33 33 34 34 34 35 35 35 36 36 36 37 37 37 38 38 38
23 22 22 21 21 20 20 20 20 20 20 21 22 22 22 22 23 23 23 23 23 24 23 23 22 22 22 24 24 25 25 24 24 23 23 24 25 26 26 25 24 24 25 25 25 25 26 27 27 28 28 29 30 31 31 32 32 33 33 33 33 33 33 33 33 33 33 33 33 33 33 33 34 34 35 35 35 36 36 36 37 37 37 37 37 38
23 22 22 21 20 20 20 20 20 21 21 21 21 22 23 23 23 24 24 24 23 23 22 22 21 21 20 22 23 24 25 24 23 22 22 22 23 24 25 24 24 24 24 24 24 24 25 25 26 27 28 29 30 31 32 32 32 33 33 33 33 33 33 33 33 33 33 33 33 33 33 33 34 34 35 36 36 36 36 36 37 37 37 37 37 37
23 22 22 21 20 20 20 21 21 21 22 21 22 23 24 24 24 24 23 23 22 21 21 21 20 20 20 20 20 22 24 23 22 21 21 21 21 23 24 24 24 23 23 23 24 24 24 25 26 27 28 30 31 31 32 32 33 33 33 33 33 33 32 32 33 33 33 33 33 33 33 33 33 34 35 36 36 37 37 37 37 37 37 37 37 37
22 22 21 21 20 20 20 21 21 21 21 22 23 24 24 24 23 23 22 21 21 20 20 20 20 20 19 19 19 21 23 22 22 21 20 20 20 21 23 23 23 22 22 22 23 24 24 26 28 29 29 30 30 31 31 32 32 32 32 32 32 32 32 32 32 32 32 32 32 33 33 33 33 33 34 36 36 37 37 37 37 37 37 37 37 37
22 22 21 21 21 21 21 21 22 22 23 24 24 24 24 23 22 21 21 21 21 21 21 20 20 20 19 19 19 20 22 22 22 21 20 20 20 21 22 22 22 21 21 21 23 23 23 25 27 27 28 29 29 30 30 31 31 31 31 31 32 32 31 32 32 32 32 32 32 33 33 33 33 33 34 35 36 36 36 37 37 37 37 37 38 38
22 22 22 22 22 22 21 22 23 24 24 25 25 24 23 22 22 21 21 21 21 21 21 20 20 20 20 20 20 21 22 22 21 20 20 20 20 20 22 22 21 20 20 20 21 22 22 23 24 24 25 27 28 29 29 29 30 30 30 30 31 31 31 31 31 31 32 32 32 33 33 33 33 33 33 34 34 35 35 36 36 37 37 37 38 38
23 23 23 24 24 23 23 23 24 25 25 26 25 24 23 22 21 21 21 21 21 21 21 21 21 21 21 21 21 22 24 22 21 21 20 20 20 20 21 21 20 20 19 20 20 21 21 22 22 23 25 27 28 28 29 29 29 29 30 30 30 30 31 31 31 31 32 32 32 32 33 33 33 33 33 33 33 34 34 35 35 36 37 37 38 38
25 25 25 25 25 24 24 24 24 24 25 25 24 24 23 23 23 22 22 22 22 22 22 22 22 22 22 22 22 22 23 22 22 22 21 20 19 20 20 21 20 20 19 20 20 20 21 21 22 23 25 27 28 28 29 29 29 29 30 30 30 31 31 31 31 31 32 32 32 32 33 33 33 33 33 33 33 33 33 34 35 35 36 37 37 38
26 26 25 25 25 25 25 24 24 24 24 24 24 24 25 24 24 24 23 23 23 23 23 22 22 22 22 22 21 21 21 22 21 21 20 20 19 19 20 20 20 20 20 20 20 21 21 21 22 23 24 27 28 29 29 29 29 30 30 30 31 31 31 31 31 31 32 32 32 32 32 33 33 33 33 33 33 33 33 33 33 34 35 36 37 37
26 25 25 25 26 26 26 25 25 25 24 24 24 24 25 25 24 24 23 23 23 23 22 21 21 20 20 20 20 20 20 21 21 20 20 19 19 19 20 20 20 20 20 20 21 21 20 21 21 23 24 25 27 28 29 29 29 29 29 30 30 30 31 31 31 31 31 31 32 32 32 32 32 32 32 32 32 32 31 32 32 32 33 33 34 35
26 26 26 26 27 28 28 27 27 27 27 26 25 24 24 24 24 24 23 23 22 21 21 20 19 19 19 19 19 19 19 20 20 20 20 19 19 19 20 20 20 20 20 20 20 20 20 20 21 22 23 24 25 27 28 28 28 29 29 29 29 29 30 30 30 30 30 31 31 31 31 31 31 31 31 31 31 31 31 31 31 32 32 32 33 33
27 27 27 27 27 27 27 27 27 28 28 27 26 26 25 24 24 23 21 21 21 20 20 19 18 18 18 18 18 18 19 19 20 20 20 19 19 19 20 20 20 20 19 20 20 21 22 21 21 22 22 22 24 24 26 27 27 27 28 28 29 29 29 29 29 30 30 30 30 30 30 30 30 30 30 31 31 31 31 31 31 31 31 31 31 31
25 25 25 25 25 26 26 26 26 27 27 27 27 27 25 24 22 21 20 20 20 20 19 18 18 18 18 18 18 18 19 19 19 19 20 20 19 19 19 20 20 20 19 20 21 22 23 22 22 21 21 22 22 23 24 26 26 26 27 27 28 28 28 29 29 29 29 29 29 29 30 30 30 30 30 31 31 31 31 31 31 31 31 30 30 29
24 24 24 24 24 24 25 25 25 25 26 26 26 26 24 23 21 20 20 20 20 20 19 19 18 18 18 18 18 18 18 18 19 20 20 20 19 19 20 20 20 20 20 20 20 20 20 20 20 20 20 21 22 22 23 24 25 25 26 26 27 27 27 28 28 28 29 29 29 29 29 30 30 30 30 31 31 31 31 31 31 31 30 29 29 29
22 22 22 23 23 23 23 23 23 24 24 25 25 25 24 22 21 21 21 20 20 20 19 19 19 18 18 18 17 17 17 18 19 20 20 19 19 19 19 19 20 20 20 19 19 18 18 19 20 20 20 21 21 21 22 23 24 24 24 25 25 26 27 27 27 28 28 28 29 29 29 29 29 30 30 30 30 31 31 31 31 30 29 29 28 28
20 20 20 21 21 22 22 22 22 22 23 23 24 23 22 22 21 21 21 20 20 20 20 19 19 19 18 18 17 16 16 17 19 20 20 19 19 19 19 19 19 20 20 19 17 16 16 17 18 19 20 20 21 21 22 22 22 22 22 23 24 24 26 26 26 27 27 28 28 28 29 29 29 29 29 29 30 30 30 30 30 30 29 28 28 28
20 20 20 20 20 20 21 21 21 21 21 21 21 21 21 21 21 21 21 21 21 20 20 20 19 19 18 18 17 16 16 17 19 20 20 19 19 19 19 19 19 19 19 19 18 17 16 16 17 18 19 20 20 20 21 21 21 22 22 22 22 23 25 25 26 26 26 27 27 28 28 28 29 29 29 29 29 29 30 30 30 29 28 28 27 27
20 20 20 20 20 20 20 20 20 20 20 20 20 20 20 20 21 21 21 21 21 21 20 20 19 19 18 18 17 17 17 18 19 20 21 20 19 19 19 18 18 18 18 19 18 18 17 17 17 17 18 19 19 20 20 21 21 22 22 22 22 22 24 24 24 25 25 26 26 27 28 28 28 28 29 29 29 29 29 29 29 29 29 28 27 27
20 20 20 20 20 20 20 20 20 20 20 20 20 20 20 20 20 20 20 20 21 21 20 20 19 19 18 17 17 17 17 18 19 20 21 20 19 19 18 18 18 17 18 17 17 17 17 17 17 17 17 18 19 19 20 20 21 21 22 21 21 21 22 23 24 24 24 25 25 26 26 27 27 28 28 28 29 29 29 29 29 29 29 29 28 27
20 20 20 20 20 20 20 20 20 20 20 20 20 19 19 19 20 20 20 20 20 20 20 20 20 19 19 18 17 17 17 17 19 20 21 20 20 19 19 18 18 17 17 17 17 17 16 17 17 17 17 17 18 18 19 20 20 21 21 21 21 21 22 23 23 24 24 24 24 24 25 25 26 27 27 28 28 29 29 29 29 29 30 29 29 28
19 20 20 19 19 19 19 19 20 20 20 19 19 19 19 20 20 20 20 20 21 21 21 21 20 20 20 20 19 18 18 18 19 20 21 21 20 20 19 18 18 18 18 17 17 16 16 16 17 17 18 17 17 17 18 19 20 20 20 21 21 22 22 23 23 23 23 23 24 24 24 25 25 26 26 28 28 29 29 29 29 30 30 30 30 29
19 19 19 19 19 19 19 19 19 19 19 19 19 20 20 20 20 20 20 22 22 22 22 22 22 22 22 21 20 20 20 20 20 21 21 22 21 21 20 19 19 19 18 18 17 17 17 16 17 17 17 16 16 16 17 18 19 20 20 20 21 21 22 23 23 23 23 23 23 24 24 24 25 25 26 27 28 28 29 29 29 29 30 30 30 30
19 19 19 19 19 19 19 19 19 19 19 19 19 19 19 20 20 20 20 21 22 22 21 21 21 22 23 23 23 23 23 23 22 22 23 23 23 22 21 20 20 20 20 19 19 18 18 17 16 16 15 15 16 17 18 18 18 19 19 20 20 21 21 22 22 23 23 23 23 24 24 24 24 24 25 26 26 26 26 27 28 29 29 29 30 30
18 18 18 19 19 18 18 18 18 18 19 19 19 20 20 20 20 20 20 20 20 20 21 20 20 21 23 24 25 24 24 25 25 26 26 26 25 24 22 21 20 20 20 20 20 20 19 18 17 16 15 16 16 17 17 18 18 18 19 19 20 20 21 21 22 22 23 23 23 23 24 24 24 24 24 24 24 24 25 25 26 27 28 27 28 29
18 18 18 18 18 18 18 18 19 19 19 19 20 20 20 20 20 20 20 20 20 20 20 21 20 21 22 22 23 23 24 26 26 26 27 27 26 25 23 22 21 20 20 20 20 20 20 19 18 17 17 17 17 17 17 18 18 19 20 19 19 20 20 21 21 22 22 22 22 22 22 23 23 23 24 24 24 24 24 24 25 25 26 26 26 26
18 18 18 18 19 19 19 19 19 19 20 20 20 20 20 20 19 19 19 20 20 20 20 20 20 20 21 21 21 21 22 24 24 25 27 27 27 26 24 23 21 21 20 20 20 20 20 19 19 18 18 17 17 18 18 18 19 20 20 19 19 19 20 21 21 21 21 22 22 22 22 23 23 23 23 23 23 24 24 24 24 25 25 25 26 26
19 18 18 18 18 19 19 19 20 20 20 20 20 19 19 19 19 19 19 19 19 20 20 20 20 20 20 20 20 21 22 22 24 25 27 27 27 26 25 23 22 21 21 20 20 20 20 20 19 19 18 18 18 18 17 18 19 20 20 20 20 20 20 21 21 21 21 21 21 22 23 22 22 22 22 22 23 23 24 24 25 25 25 25 25 26
18 18 18 19 19 19 20 20 20 20 20 19 19 19 19 19 19 19 20 19 19 20 20 20 20 20 20 19 20 20 21 23 23 23 24 25 26 26 25 24 23 22 22 21 20 20 20 20 20 19 19 19 19 18 18 18 19 19 19 20 20 19 19 19 20 20 20 21 21 21 21 21 21 22 22 22 23 23 24 24 25 25 25 25 25 26
19 19 19 19 20 20 20 20 20 19 19 19 19 19 19 19 20 20 20 20 20 20 20 20 20 20 20 19 19 19 19 20 22 22 22 23 24 25 24 24 23 23 23 22 21 20 20 20 20 19 19 19 19 19 18 18 18 18 18 19 20 19 19 19 20 20 20 20 21 21 21 21 21 22 22 22 22 23 24 23 23 24 25 25 25 25
19 19 20 20 20 20 20 19 19 19 19 19 19 19 19 19 20 20 20 20 20 20 20 20 20 20 19 18 18 18 18 19 20 20 21 22 23 24 24 23 22 22 22 22 21 21 20 20 19 19 19 19 19 19 18 18 18 18 19 20 20 20 20 20 20 20 20 20 20 21 21 22 22 22 22 22 22 22 22 23 23 24 24 24 24 25
20 20 20 20 19 19 19 19 19 19 19 19 19 19 19 20 20 20 20 20 20 20 20 20 20 19 18 18 18 18 18 18 18 19 19 20 21 22 22 22 22 22 21 21 21 21 21 20 20 20 19 19 19 19 19 18 18 18 19 19 19 19 20 20 20 20 20 20 20 21 22 23 22 22 22 21 22 22 22 22 23 23 24 24 24 24
20 20 19 19 19 19 19 19 19 19 19 19 19 19 19 20 20 20 20 20 20 20 20 20 20 19 19 18 18 18 18 18 18 18 19 19 20 20 21 21 22 22 21 21 21 22 22 22 22 21 20 20 19 18 18 18 19 19 19 19 19 19 19 19 20 20 20 21 21 21 23 23 23 22 22 22 22 22 22 22 23 23 23 24 24 24
20 20 19 19 19 19 19 19 19 19 19 19 19 19 19 20 20 20 20 21 21 21 21 20 20 19 19 18 18 18 18 18 18 18 19 19 20 20 20 20 21 21 21 22 22 22 22 24 24 24 22 21 20 19 18 19 19 19 19 19 19 19 19 19 20 20 21 21 23 24 24 23 22 22 22 22 22 22 22 22 23 23 24 24 24 24
20 20 20 19 19 19 19 19 19 19 19 19 19 19 20 20 21 21 20 21 20 20 20 20 19 19 19 18 18 19 19 19 19 19 19 19 20 20 20 20 20 20 21 21 21 22 22 24 24 24 23 22 21 20 20 19 20 20 20 20 20 20 20 20 20 20 21 22 24 25 25 23 23 22 22 22 22 21 21 22 22 23 23 24 24 24
20 20 20 20 19 19 19 19 19 19 19 19 19 20 20 20 20 20 20 20 20 20 20 20 20 19 19 19 19 19 19 19 19 19 19 19 20 20 20 20 20 20 20 20 20 20 20 21 22 23 24 24 23 22 21 20 20 20 21 21 20 20 20 20 20 21 21 22 23 24 26 24 24 24 24 23 22 22 22 22 22 23 23 24 24 24
20 20 20 20 20 19 19 19 20 20 20 20 20 20 20 20 20 20 20 20 20 20 20 20 20 20 19 19 19 19 19 19 19 19 19 20 20 20 20 20 20 20 20 20 19 19 18 18 18 19 20 23 24 24 22 21 21 21 21 21 21 21 21 21 21 21 22 22 23 24 24 24 24 24 24 23 23 22 22 22 22 22 23 24 24 24